Weather History for KFFT - November, 2011

Change the Weather History Date:

Saturday, November 12, 2011

  Actual Average Record
Temperature  
Mean Temperature 54 °F 48 °F  
Max Temperature 63 °F 58 °F 78 °F (1945)
Min Temperature 44 °F 37 °F 17 °F (1957)
Degree Days  
Heating Degree Days 11 17  
Month to date heating degree days 188 186  
Since 1 July heating degree days 596 527  
Cooling Degree Days 0 0  
Month to date cooling degree days 0 0  
Year to date cooling degree days 1285 1154  
Growing Degree Days 4 (Base 50)    
Moisture  
Dew Point 31 °F    
Average Humidity 45    
Maximum Humidity 58    
Minimum Humidity 32    
Precipitation  
Precipitation 0.00 in 0.10 in 2.36 in (1911)
Month to date precipitation 0.78 1.38  
Year to date precipitation 54.51 39.26  
Sea Level Pressure  
Sea Level Pressure 30.04 in    
Wind  
Wind Speed 13 mph (SSW)    
Max Wind Speed 23 mph    
Max Gust Speed 30 mph    
Visibility 10 miles    
Events      
T = Trace of Precipitation, MM = Missing Value Source: NWS Daily Summary

Daily Weather History Graph

Daily Weather History Graph

Search for Another Location

Airport or City:

Trip Planner

Search our weather history database for the weather conditions in past years. The results will help you decide how hot, cold, wet, or windy it might be!

Date:

Astronomy

Nov. 12, 2011 Rise Set
Actual Time 7:17 AM EST 5:29 PM EST
Civil Twilight 6:49 AM EST 5:57 PM EST
Nautical Twilight 6:17 AM EST 6:29 PM EST
Astronomical Twilight 5:46 AM EST 7:00 PM EST
Moon 6:46 PM EST (11/12) 8:57 AM EST (11/12)
Length of Visible Light 11h 08m
Length of Day
10h 12m
Full, 97% of the Moon is Illuminated
Nov 12
Full
Nov 18
Last Quarter
Nov 25
New
Dec 2
First Quarter
Dec 10
Full

Hourly Weather History & Observations

Time (EST) Temp. Windchill Dew Point Humidity Pressure Visibility Wind Dir Wind Speed Gust Speed Precip Events Conditions
12:53 AM 46.0 °F 41.0 °F 28.0 °F 50% 30.01 in 10.0 mi SW 10.4 mph - N/A   Clear
1:53 AM 46.0 °F 41.0 °F 28.9 °F 51% 30.01 in 10.0 mi SSW 10.4 mph 19.6 mph N/A   Clear
2:53 AM 46.0 °F 40.6 °F 28.9 °F 51% 30.02 in 10.0 mi SSW 11.5 mph - N/A   Clear
3:53 AM 46.0 °F 39.9 °F 28.9 °F 51% 30.02 in 10.0 mi SSW 13.8 mph - N/A   Clear
4:53 AM 46.0 °F 40.6 °F 30.0 °F 54% 30.03 in 10.0 mi SSW 11.5 mph - N/A   Clear
5:53 AM 45.0 °F 39.3 °F 30.0 °F 56% 30.04 in 10.0 mi SSW 11.5 mph - N/A   Clear
7:53 AM 45.0 °F 39.3 °F 30.9 °F 58% 30.07 in 10.0 mi SSW 11.5 mph - N/A   Clear
8:53 AM 48.9 °F - 30.9 °F 50% 30.09 in 10.0 mi SSW 11.5 mph 24.2 mph N/A   Clear
9:53 AM 52.0 °F - 32.0 °F 47% 30.09 in 10.0 mi SSW 18.4 mph 24.2 mph N/A   Clear
10:53 AM 55.9 °F - 34.0 °F 44% 30.10 in 10.0 mi SSW 12.7 mph 21.9 mph N/A   Clear
11:53 AM 59.0 °F - 34.0 °F 39% 30.09 in 10.0 mi SW 12.7 mph 21.9 mph N/A   Clear
12:53 PM 61.0 °F - 34.0 °F 36% 30.06 in 10.0 mi SSW 15.0 mph 24.2 mph N/A   Clear
1:53 PM 63.0 °F - 33.1 °F 33% 30.04 in 10.0 mi SW 18.4 mph 26.5 mph N/A   Clear
2:53 PM 62.1 °F - 33.1 °F 34% 30.04 in 10.0 mi SSW 17.3 mph 23.0 mph N/A   Clear
3:53 PM 60.1 °F - 30.9 °F 33% 30.04 in 10.0 mi SSW 17.3 mph 26.5 mph N/A   Clear
4:53 PM 57.9 °F - 32.0 °F 37% 30.03 in 10.0 mi SSW 9.2 mph 20.7 mph N/A   Clear
5:53 PM 57.0 °F - 32.0 °F 39% 30.02 in 10.0 mi South 9.2 mph - N/A   Clear
6:53 PM 55.9 °F - 32.0 °F 40% 30.02 in 10.0 mi South 9.2 mph - N/A   Clear
7:53 PM 55.0 °F - 30.9 °F 40% 30.01 in 10.0 mi South 6.9 mph - N/A   Clear
8:53 PM 54.0 °F - 30.9 °F 41% 30.00 in 10.0 mi South 9.2 mph - N/A   Clear
9:53 PM 55.9 °F - 30.0 °F 37% 30.01 in 10.0 mi SSW 17.3 mph 28.8 mph N/A   Clear
10:53 PM 55.9 °F - 28.9 °F 36% 30.01 in 10.0 mi SSW 13.8 mph 26.5 mph N/A   Clear
11:53 PM 55.0 °F - 30.0 °F 38% 29.98 in 10.0 mi SSW 15.0 mph 26.5 mph N/A   Clear